Regional Weather Roundup
Issued by NWS

Home | Current Version | Previous Version | Text Only | Print | Product List | Glossary Off
Versions: 1 2 3 4 5 6 7 8 9 10 11 12 13 14 15 16 17 18 19 20 21 22 23 24 25 26 27 28 29 30 31 32 33 34 35 36 37 38 39 40 41 42 43 44 45 46 47 48 49 50

000
ASUS45 KABQ 230901
RWRNM
NEW MEXICO REGIONAL WEATHER ROUNDUP
NATIONAL WEATHER SERVICE ALBUQUERQUE NM
300 AM MDT WED AUG 23 2017

NOTE: "FAIR" MEANS FEW OR NO CLOUDS BELOW 12,000 FEET AGL WITH NO
       SIGNIFICANT WEATHER OR OBSTRUCTIONS TO VISION.

      THIS PRODUCT IS RELEASED AS TWO VERSIONS.  ONE VERSION NEAR
      THE TOP OF THE HOUR CONTAINING PRELIMINARY DATA FROM ALBUQUERQUE
      AND OTHER STATIONS.  A FINAL VERSION WITH ADDITIONAL DATA IS
      ISSUED ABOUT 10 MINUTES AFTER THE HOUR.

NMZ501-503-504-510>518-231000-
NORTHWEST PLATEAU/NORTHCENTRAL MOUNTAINS

CITY           SKY/WX    TMP DP  RH WIND       PRES   REMARKS
FARMINGTON     FAIR      67  48  50 E7        30.26S
LOS ALAMOS     MOCLDY    61  49  64 S3        30.45R
SANTA FE       MOCLDY    59  55  87 NW3       30.39R
TAOS           FAIR      52  51  97 S8        30.45S
ANGEL FIRE     FAIR      46  45  97 CALM      30.50S

$$
NMZ402-403-502-505>509-231000-
WESTCENTRAL MOUNTAINS/SOUTHWEST MOUNTAINS

CITY           SKY/WX    TMP DP  RH WIND       PRES   REMARKS
GALLUP         FAIR      58  40  51 S3        30.32S
GRANTS         MOCLDY    63  55  74 S10G16    30.37R
SILVER CITY    FAIR      62  55  76 N5        30.25R

$$
NMZ407-409-411-412-231000-
SOUTHERN DESERTS

CITY           SKY/WX    TMP DP  RH WIND       PRES   REMARKS
DEMING         FAIR      72  61  68 NE3       30.16S
LAS CRUCES     FAIR      75  59  58 SE5       30.19S
HOLLOMAN AFB     N/A    N/A N/A N/A NW7         N/A
ALAMOGORDO     FAIR      73  59  60 NW5       30.18S
T OR C         CLOUDY    75  60  59 NE6       30.21S

$$
NMZ519>523-231000-
CENTRAL VALLEYS/CENTRAL HIGHLANDS

CITY           SKY/WX    TMP DP  RH WIND       PRES   REMARKS
ALBUQUERQUE    MOCLDY    67  60  78 N12       30.29F
CLINES CORNERS CLOUDY    59  55  87 CALM      30.43S
BELEN          CLOUDY    68  60  77 NW5       30.28S
SOCORRO        FAIR      69  58  70 CALM      30.26S

$$
NMZ524>526-539-540-231000-
SOUTHCENTRAL MOUNTAINS

CITY           SKY/WX    TMP DP  RH WIND       PRES   REMARKS
RUIDOSO          N/A     59  59 100 SE7       30.40F

$$
NMZ527>531-231000-
NORTHEAST HIGHLANDS/NORTHEAST PLAINS

CITY           SKY/WX    TMP DP  RH WIND       PRES   REMARKS
LAS VEGAS      MOCLDY    53  51  93 S7        30.40R
RATON          FAIR      51  50  96 NE7       30.35S
CLAYTON        CLOUDY    63  61  93 CALM      30.28S

$$
NMZ532>537-231000-
EASTCENTRAL PLAINS

CITY           SKY/WX    TMP DP  RH WIND       PRES   REMARKS
SANTA ROSA     CLOUDY    66  64  91 W3        30.27F
TUCUMCARI      CLOUDY    68  67  96 CALM      30.21F
CANNON AFB     MOCLDY    65  65 100 N6        30.24S
CLOVIS AIRPORT MOCLDY    65  63  93 N3        30.24R

$$
NMZ028-029-538-231000-
SOUTHEAST PLAINS

CITY           SKY/WX    TMP DP  RH WIND       PRES   REMARKS
ROSWELL        FAIR      70  65  84 N8        30.20F
ARTESIA        FAIR      70  68  94 N6        30.19F
CARLSBAD       FAIR      70  67  90 N6        30.16F
HOBBS          CLOUDY    66  64  94 NE7       30.18S


$$




USA.gov is the U.S. government's official web portal to all federal, state and local government web resources and services.